When you browse on this site, cookies collect data to enhance your experience and personalize the content and advertising you see.
Visit our Privacy Policy to learn more. By continuing to use the site, you agree to this use of cookies and data.
  • In Sweden
  • List of Countries
  • For 7 days
  • Water Temperature
  • Weather Map
  • Weather Widgets
  • user-avatar
    Login

    Hourly Weather Mérida

    Today, 26 February, Wednesday

    Time Temperature Precipitation Wind Pressure Humidity
    00:00 +24°C° 0 mm 2 mps 757 mmHg 95%
    01:00 +24°C° 0 mm 1 mps 757 mmHg 95%
    02:00 +24°C° 0 mm 1 mps 757 mmHg 96%
    03:00 +24°C° 0 mm 1 mps 756 mmHg 97%
    04:00 +23°C° 0 mm 1 mps 757 mmHg 97%
    05:00 +23°C° 0 mm 1 mps 757 mmHg 97%
    06:00 +23°C° 0 mm 1 mps 757 mmHg 97%
    07:00 +26°C° 0 mm 1 mps 758 mmHg 86%
    08:00 +28°C° 0 mm 1 mps 759 mmHg 75%
    09:00 +30°C° 0 mm 2 mps 759 mmHg 64%
    10:00 +31°C° 0.5 mm 2 mps 759 mmHg 59%
    11:00 +34°C° 0.5 mm 2 mps 759 mmHg 54%
    12:00 +35°C° 0.5 mm 2 mps 759 mmHg 49%
    13:00 +33°C° 0.2 mm 4 mps 759 mmHg 54%
    14:00 +30°C° 0.2 mm 5 mps 758 mmHg 59%
    15:00 +29°C° 0.2 mm 7 mps 758 mmHg 65%
    16:00 +27°C° 0.1 mm 7 mps 759 mmHg 70%
    17:00 +26°C° 0.1 mm 7 mps 760 mmHg 74%
    18:00 +23°C° 0.1 mm 7 mps 761 mmHg 79%
    19:00 +22°C° 0.1 mm 7 mps 762 mmHg 78%
    20:00 +22°C° 0.1 mm 7 mps 763 mmHg 77%
    21:00 +21°C° 0.1 mm 7 mps 764 mmHg 77%
    22:00 +21°C° 0 mm 6 mps 765 mmHg 73%
    23:00 +21°C° 0 mm 5 mps 765 mmHg 69%

    Tomorrow, 27 February, Thursday

    Time Temperature Precipitation Wind Pressure Humidity
    00:00 +21°C° 0 mm 5 mps 765 mmHg 66%
    01:00 +21°C° 0 mm 5 mps 765 mmHg 66%
    02:00 +21°C° 0 mm 5 mps 765 mmHg 66%
    03:00 +21°C° 0 mm 5 mps 765 mmHg 66%
    04:00 +20°C° 0 mm 5 mps 765 mmHg 68%
    05:00 +20°C° 0 mm 4 mps 765 mmHg 71%
    06:00 +20°C° 0 mm 4 mps 766 mmHg 73%
    07:00 +20°C° 0 mm 4 mps 766 mmHg 70%
    08:00 +20°C° 0 mm 4 mps 767 mmHg 67%
    09:00 +21°C° 0 mm 4 mps 767 mmHg 64%
    10:00 +21°C° 0 mm 4 mps 767 mmHg 62%
    11:00 +22°C° 0 mm 4 mps 767 mmHg 60%
    12:00 +22°C° 0 mm 4 mps 767 mmHg 58%
    13:00 +23°C° 0 mm 4 mps 766 mmHg 57%
    14:00 +23°C° 0 mm 4 mps 766 mmHg 55%
    15:00 +25°C° 0 mm 4 mps 765 mmHg 54%
    16:00 +23°C° 0 mm 4 mps 766 mmHg 58%
    17:00 +22°C° 0 mm 4 mps 766 mmHg 61%
    18:00 +21°C° 0 mm 3 mps 766 mmHg 65%
    19:00 +20°C° 0 mm 3 mps 767 mmHg 69%
    20:00 +19°C° 0 mm 2 mps 767 mmHg 73%
    21:00 +19°C° 0 mm 1 mps 767 mmHg 77%
    22:00 +19°C° 0 mm 1 mps 767 mmHg 76%
    23:00 +20°C° 0 mm 1 mps 767 mmHg 74%

    Day after tomorrow, 28 February, Friday

    Time Temperature Precipitation Wind Pressure Humidity
    00:00 +20°C° 0 mm 1 mps 767 mmHg 73%
    01:00 +19°C° 0 mm 1 mps 767 mmHg 74%
    02:00 +18°C° 0 mm 1 mps 766 mmHg 76%
    03:00 +18°C° 0 mm 1 mps 766 mmHg 78%
    04:00 +18°C° 0 mm 1 mps 766 mmHg 79%
    05:00 +18°C° 0 mm 1 mps 767 mmHg 79%
    06:00 +19°C° 0 mm 1 mps 767 mmHg 80%
    07:00 +19°C° 0 mm 2 mps 767 mmHg 75%
    08:00 +20°C° 0 mm 2 mps 768 mmHg 69%
    09:00 +22°C° 0 mm 3 mps 768 mmHg 64%
    10:00 +22°C° 0.1 mm 3 mps 768 mmHg 63%
    11:00 +22°C° 0.1 mm 4 mps 768 mmHg 62%
    12:00 +22°C° 0.1 mm 4 mps 767 mmHg 60%
    13:00 +22°C° 0 mm 4 mps 767 mmHg 60%
    14:00 +22°C° 0 mm 4 mps 767 mmHg 60%
    15:00 +22°C° 0 mm 4 mps 766 mmHg 60%
    16:00 +22°C° 0 mm 4 mps 766 mmHg 62%
    17:00 +21°C° 0 mm 3 mps 767 mmHg 63%
    18:00 +20°C° 0 mm 3 mps 767 mmHg 65%
    19:00 +19°C° 0 mm 3 mps 767 mmHg 68%
    20:00 +18°C° 0 mm 2 mps 768 mmHg 72%
    21:00 +17°C° 0 mm 2 mps 768 mmHg 76%
    22:00 +17°C° 0 mm 2 mps 768 mmHg 74%
    23:00 +17°C° 0 mm 2 mps 768 mmHg 73%

    29 February, Saturday

    Time Temperature Precipitation Wind Pressure Humidity
    00:00 +17°C° 0 mm 2 mps 768 mmHg 72%
    01:00 +17°C° 0 mm 2 mps 768 mmHg 73%
    02:00 +16°C° 0 mm 2 mps 767 mmHg 74%
    03:00 +16°C° 0 mm 2 mps 767 mmHg 74%
    04:00 +16°C° 0 mm 1 mps 767 mmHg 75%
    05:00 +16°C° 0 mm 1 mps 767 mmHg 75%
    06:00 +16°C° 0 mm 1 mps 768 mmHg 76%
    07:00 +18°C° 0 mm 2 mps 768 mmHg 67%
    08:00 +20°C° 0 mm 3 mps 768 mmHg 58%
    09:00 +22°C° 0 mm 3 mps 769 mmHg 49%
    10:00 +23°C° 0 mm 4 mps 768 mmHg 46%
    11:00 +25°C° 0 mm 4 mps 768 mmHg 43%
    12:00 +27°C° 0 mm 4 mps 767 mmHg 40%
    13:00 +27°C° 0 mm 4 mps 767 mmHg 39%
    14:00 +27°C° 0 mm 4 mps 766 mmHg 39%
    15:00 +28°C° 0 mm 5 mps 765 mmHg 38%
    16:00 +26°C° 0 mm 5 mps 765 mmHg 43%
    17:00 +23°C° 0 mm 4 mps 765 mmHg 49%
    18:00 +22°C° 0 mm 4 mps 765 mmHg 54%
    19:00 +21°C° 0 mm 4 mps 766 mmHg 57%
    20:00 +20°C° 0 mm 4 mps 766 mmHg 61%
    21:00 +19°C° 0 mm 3 mps 766 mmHg 64%
    22:00 +18°C° 0 mm 3 mps 766 mmHg 67%
    23:00 +17°C° 0 mm 3 mps 766 mmHg 70%

    1 March, Sunday

    Time Temperature Precipitation Wind Pressure Humidity
    00:00 +17°C° 0 mm 2 mps 766 mmHg 73%
    01:00 +16°C° 0 mm 2 mps 765 mmHg 76%
    02:00 +16°C° 0 mm 2 mps 765 mmHg 78%
    03:00 +15°C° 0 mm 2 mps 764 mmHg 81%
    04:00 +15°C° 0 mm 2 mps 764 mmHg 82%
    05:00 +15°C° 0 mm 2 mps 764 mmHg 84%
    06:00 +14°C° 0 mm 2 mps 765 mmHg 85%
    07:00 +17°C° 0 mm 3 mps 765 mmHg 74%
    08:00 +20°C° 0 mm 3 mps 765 mmHg 62%
    09:00 +23°C° 0 mm 4 mps 765 mmHg 50%
    10:00 +26°C° 0 mm 4 mps 765 mmHg 44%
    11:00 +28°C° 0 mm 3 mps 764 mmHg 38%
    12:00 +30°C° 0 mm 3 mps 763 mmHg 32%
    13:00 +31°C° 0 mm 3 mps 762 mmHg 30%
    14:00 +33°C° 0 mm 3 mps 761 mmHg 27%
    15:00 +33°C° 0 mm 3 mps 760 mmHg 24%
    16:00 +30°C° 0 mm 3 mps 761 mmHg 33%
    17:00 +28°C° 0 mm 3 mps 761 mmHg 42%
    18:00 +26°C° 0 mm 4 mps 761 mmHg 51%
    19:00 +23°C° 0 mm 4 mps 761 mmHg 57%
    20:00 +22°C° 0 mm 3 mps 761 mmHg 62%
    21:00 +21°C° 0 mm 3 mps 762 mmHg 68%
    22:00 +21°C° 0 mm 3 mps 762 mmHg 71%
    23:00 +20°C° 0 mm 3 mps 762 mmHg 74%

    2 March, Monday

    Time Temperature Precipitation Wind Pressure Humidity
    00:00 +20°C° 0 mm 3 mps 762 mmHg 77%
    01:00 +19°C° 0 mm 3 mps 761 mmHg 80%
    02:00 +19°C° 0 mm 3 mps 761 mmHg 83%
    03:00 +18°C° 0 mm 3 mps 761 mmHg 86%
    04:00 +18°C° 0 mm 3 mps 761 mmHg 87%
    05:00 +17°C° 0 mm 3 mps 761 mmHg 88%
    06:00 +17°C° 0 mm 2 mps 761 mmHg 88%
    07:00 +20°C° 0 mm 3 mps 761 mmHg 77%
    08:00 +22°C° 0 mm 4 mps 762 mmHg 66%
    09:00 +26°C° 0 mm 4 mps 762 mmHg 55%
    10:00 +28°C° 0 mm 4 mps 761 mmHg 48%
    11:00 +30°C° 0 mm 4 mps 761 mmHg 40%
    12:00 +33°C° 0 mm 4 mps 760 mmHg 33%
    13:00 +34°C° 0 mm 4 mps 759 mmHg 32%
    14:00 +35°C° 0 mm 4 mps 758 mmHg 30%
    15:00 +36°C° 0 mm 4 mps 757 mmHg 29%
    16:00 +34°C° 0 mm 3 mps 757 mmHg 33%
    17:00 +33°C° 0 mm 3 mps 758 mmHg 38%
    18:00 +30°C° 0 mm 3 mps 758 mmHg 42%
    19:00 +29°C° 0 mm 3 mps 758 mmHg 47%
    20:00 +27°C° 0 mm 4 mps 759 mmHg 52%
    21:00 +26°C° 0 mm 5 mps 759 mmHg 56%
    22:00 +25°C° 0 mm 4 mps 759 mmHg 63%
    23:00 +23°C° 0 mm 4 mps 759 mmHg 70%
    Show more